| time (UTC) | temp F | wind direction | speed MPH | gust MPH | rain 1hr in | rain 24hr in | rain mn in | humidity % | barometer mb |
| 20260506183509 | 54 | 246 | 1.0 | 10.0 | 0.02 | 0.08 | 0.08 | 89 | 1006.9 |
| 20260506180514 | 55 | 324 | 1.0 | 7.0 | 0.00 | 0.06 | 0.06 | 88 | 1006.4 |
| 20260506173513 | 55 | 229 | 0.0 | 9.0 | 0.01 | 0.06 | 0.06 | 88 | 1006.0 |
| 20260506170512 | 56 | 223 | 2.0 | 11.0 | 0.01 | 0.06 | 0.06 | 88 | 1005.7 |
| 20260506163511 | 56 | 251 | 3.0 | 12.0 | 0.02 | 0.05 | 0.05 | 87 | 1005.8 |
| 20260506153510 | 57 | 244 | 0.0 | 0.0 | 0.03 | 0.03 | 0.03 | 83 | 1005.9 |
| 20260506150509 | 59 | 247 | 0.0 | 0.0 | 0.00 | 0.00 | 0.00 | 79 | 1005.8 |
| 20260506143513 | 63 | 238 | 1.0 | 12.0 | 0.00 | 0.00 | 0.00 | 68 | 1005.4 |
| 20260506140513 | 63 | 308 | 0.0 | 1.0 | 0.00 | 0.00 | 0.00 | 65 | 1004.9 |
| 20260506130511 | 65 | 319 | 0.0 | 4.0 | 0.00 | 0.00 | 0.00 | 63 | 1004.7 |
| 20260506123511 | 66 | 350 | 0.0 | 4.0 | 0.00 | 0.00 | 0.00 | 64 | 1004.6 |
| 20260506120510 | 65 | 261 | 0.0 | 0.0 | 0.00 | 0.00 | 0.00 | 66 | 1004.6 |
| 20260506103512 | 63 | 116 | 0.0 | 0.0 | 0.00 | 0.00 | 0.00 | 71 | 1005.4 |
| 20260506100512 | 62 | 81 | 0.0 | 0.0 | 0.00 | 0.00 | 0.00 | 73 | 1005.4 |
| 20260506093511 | 61 | 273 | 1.0 | 9.0 | 0.00 | 0.00 | 0.00 | 74 | 1005.4 |
| 20260506090510 | 62 | 309 | 1.0 | 7.0 | 0.00 | 0.00 | 0.00 | 75 | 1005.5 |
| 20260506083510 | 61 | 18 | 0.0 | 4.0 | 0.00 | 0.00 | 0.00 | 77 | 1005.5 |
| 20260506080513 | 60 | 78 | 0.0 | 0.0 | 0.00 | 0.00 | 0.00 | 79 | 1005.2 |
| 20260506073513 | 59 | 38 | 1.0 | 6.0 | 0.00 | 0.00 | 0.00 | 80 | 1004.9 |
| 20260506060510 | 55 | 261 | 0.0 | 0.0 | 0.00 | 0.00 | 0.00 | 88 | 1005.2 |
| 20260506050509 | 52 | 248 | 0.0 | 0.0 | 0.00 | 0.00 | 0.00 | 91 | 1005.4 |
| 20260506040512 | 53 | 248 | 0.0 | 0.0 | 0.00 | 0.00 | 0.00 | 91 | 1005.2 |
| 20260506033512 | 53 | 267 | 0.0 | 0.0 | 0.00 | 0.00 | 0.00 | 91 | 1005.3 |
| 20260506023511 | 54 | 271 | 0.0 | 0.0 | 0.00 | 0.00 | 0.00 | 91 | 1006.0 |
| 20260506020510 | 54 | 238 | 0.0 | 0.0 | 0.00 | 0.00 | 0.00 | 91 | 1005.9 |
| 20260506010513 | 54 | 238 | 0.0 | 0.0 | 0.00 | 0.00 | 0.00 | 90 | 1005.9 |
| 20260506003513 | 54 | 238 | 0.0 | 0.0 | 0.00 | 0.00 | 0.00 | 90 | 1006.0 |
| 20260506000512 | 55 | 238 | 0.0 | 0.0 | 0.00 | 0.00 | 0.00 | 90 | 1006.4 |
| 20260505233511 | 55 | 230 | 0.0 | 0.0 | 0.00 | 0.00 | 0.00 | 90 | 1006.6 |
| 20260505230510 | 56 | 263 | 0.0 | 0.0 | 0.00 | 0.00 | 0.00 | 90 | 1006.7 |
| 20260505223509 | 56 | 307 | 0.0 | 0.0 | 0.00 | 0.00 | 0.00 | 90 | 1006.8 |
| 20260505220513 | 57 | 253 | 0.0 | 0.0 | 0.00 | 0.00 | 0.00 | 90 | 1006.5 |
| 20260505213512 | 57 | 264 | 0.0 | 0.0 | 0.00 | 0.11 | 0.11 | 89 | 1006.6 |
| 20260505210512 | 57 | 257 | 0.0 | 0.0 | 0.00 | 0.11 | 0.11 | 89 | 1006.5 |
| 20260505203511 | 58 | 272 | 0.0 | 0.0 | 0.01 | 0.11 | 0.11 | 88 | 1006.6 |
| 20260505200510 | 58 | 248 | 0.0 | 0.0 | 0.02 | 0.11 | 0.11 | 87 | 1006.5 |
| 20260505193510 | 58 | 241 | 0.0 | 0.0 | 0.04 | 0.10 | 0.10 | 86 | 1006.3 |
| 20260505190509 | 59 | 244 | 0.0 | 0.0 | 0.03 | 0.09 | 0.09 | 84 | 1006.2 |